www.pogodaiklimat.ru

Погода и климат >> Архив погоды >> Россия >> Нижегородская область >> Нижний Новгород


АРХИВ ПОГОДЫ в Нижнем Новгороде

Время (UTC), дата Ветер
(напр.,м/с)
 
Видим.   Явления Облачность Т
(С)
Тd
(С)
f
(%)
Тe
(С)
Тes
(С)
Комфортность P
(гПа)
Po
(гПа)
Тmin
(С)
Tmax
(С)
R
(мм)
R24
(мм)
S
(см)
09 19.09 СЗ 3-8
{9}
10 км 9/3 1000 м
[Cb cap Cc]
+14.1 +3.8 50 +13 +17 тепло 1011.8 993.0
12 19.09 СЗ 3-7
{10}
10 км 10/3 1000 м
[Cb cap Ac trans Cs]
+14.5 +5.1 53 +14 +15 по сезону 1011.7 993.0
15 19.09 СЗ 1-4
{8}
10 км 10/0
[Ac As]
+12.5 +7.4 71 +13 +13 тепло 1012.7 993.9 +15.6
18 19.09 СЗ 1-2
{4}
10 км 9/0
[Ac As]
+12.0 +9.7 86 +12 +12 тепло 1012.6 993.8
21 19.09 З 1-2
{3}
10 км 10/0
[Ac As]
+11.5 +9.9 90 +11 +11 тепло 1012.3 993.4
00 20.09 З 1-2
{3}
10 км 9/9 600 м
[Sc]
+11.6 +10.6 94 +11 +11 тепло 1011.8 993.0
03 20.09 З 1-4
{4}
10 км 10/10 600 м
[Sc]
+11.5 +10.5 94 +11 +11 тепло 1011.4 992.5 +11.3
06 20.09 ЮЗ 1-3
{4}
4000 м 10/8 300 м
[St Ac As]
+11.6 +11.0 96 +11 +11 тепло 1011.1 992.3 +11.0
09 20.09 З 1-5
{5}
10 км 8/0
[Ci]
+18.3 +12.8 70 +20 +26 тепло 1008.8 990.5
12 20.09 СЗ 2-7
{9}
10 км 8/8 600 м
[Cb cap]
+19.1 +13.5 70 +21 +22 комфорт 1009.2 990.9
15 20.09 СЗ 1-6
{9}
10 км 8/8 600 м
[Cb cap]
+17.3 +12.8 75 +18 +18 тепло 1010.8 992.5 +20.5
18 20.09 З 1-4
{7}
10 км 4/0
[Ac trans]
+14.8 +11.2 79 +15 +15 тепло 1012.6 994.0
21 20.09 З 1-3
{4}
10 км 3/0
[Ac trans]
+12.7 +12.1 96 +13 +13 тепло 1013.5 994.8
00 21.09 З 1-2
{4}
10 км 9/9 1000 м
[Sc]
+12.4 +12.0 97 +12 +12 тепло 1014.8 996.0
03 21.09 З 1-2
{4}
4000 м дымка 10/0
[Ac As]
+11.1 +10.7 97 +11 +11 тепло 1016.2 997.3 +10.9
06 21.09 З 1-3
{3}
10 км 8/0
[Ac As]
+13.8 +12.5 92 +14 +16 тепло 1017.7 998.9
09 21.09 З 2-5
{5}
10 км 8/0
[Ci fib]
+19.1 +13.9 72 +21 +26 комфорт 1017.4 998.9
12 21.09 З 2-5
{6}
10 км 6/1 1000 м
[Cu hum Ci fib]
+21.8 +13.1 58 +24 +27 комфорт 1017.2 999.0
15 21.09 штиль 0
{6}
10 км 6/0
[Ac trans Ci fib]
+20.2 +13.2 64 +22 +22 комфорт 1017.8 999.4 +22.3
18 21.09 штиль 0
{3}
10 км 1/0
[Ci fib]
+16.8 +12.8 77 +17 +17 тепло 1018.6 1000.0
21 21.09 штиль 0-1
{2}
10 км ясно +15.8 +12.0 78 +16 +16 тепло 1019.1 1000.5
00 22.09 штиль 0
{2}
10 км ясно +14.7 +11.8 83 +14 +14 тепло 1019.5 1000.7
03 22.09 штиль 0
{1}
10 км 1/0
[Ci fib]
+13.3 +11.9 91 +13 +13 тепло 1019.8 1000.9 +13.2
06 22.09 штиль 0-1
{2}
10 км ясно +17.7 +12.9 73 +18 +22 тепло 1019.6 1001.1
09 22.09 З 2-4
{6}
10 км ясно +22.8 +13.1 54 +26 +32 жарко 1018.4 1000.2
12 22.09 З 2-4
{6}
10 км ясно +24.0 +12.5 49 +26 +29 жарко 1017.0 998.9
15 22.09 штиль 0
{6}
10 км ясно +19.4 +12.5 64 +21 +21 комфорт 1016.0 997.6 +24.2
18 22.09 ЮВ 1-2
{3}
10 км ясно +16.7 +11.5 71 +18 +18 тепло 1015.5 997.0
21 22.09 Ю 1-4
{5}
10 км ясно +16.4 +11.7 74 +17 +17 тепло 1014.4 995.9
00 23.09 Ю 1-5
{6}
10 км ясно +15.6 +11.1 75 +16 +16 тепло 1013.5 994.9
03 23.09 ЮВ 1-4
{5}
10 км 1/0
[Ci fib]
+13.4 +10.3 81 +14 +14 тепло 1012.3 993.6 +13.1
06 23.09 ЮВ 2-7
{7}
10 км ясно +17.0 +11.3 69 +17 +20 тепло 1010.0 991.6
09 23.09 Ю 3-9
{11}
10 км ясно +22.3 +11.4 50 +24 +30 комфорт 1008.0 989.9
12 23.09 Ю 3-8
{10}
10 км 3/0
[Ci fib]
+23.8 +9.5 40 +25 +27 комфорт 1006.2 988.3
15 23.09 З 2-6
{10}
10 км слабый ливневой дождь, в посл. час гроза 10/8 600 м
[Cb cap Ac As]
+17.5 +13.0 75 +18 +18 тепло 1006.5 988.2 +23.8 0.0
18 23.09 СЗ 1-4
{8}
10 км слабый ливневой дождь {гроза} 10/10 300 м
[Cb cap]
+11.9 +11.1 95 +12 +12 тепло 1008.3 989.6
21 23.09 З 1-4
{6}
10 км слабый дождь {ливн. осадки} 10/10 300 м
[Frnb Ns]
+9.6 +8.8 95 +9 +9 по сезону 1008.7 989.8
00 24.09 СЗ 1-3
{5}
10 км слабый дождь {ливн. осадки} 10/10 300 м
[Frnb Ns]
+8.6 +8.0 96 +8 +8 по сезону 1009.1 990.1
03 24.09 З 1-2
{4}
10 км слабый дождь 10/10 300 м
[Frnb Ns]
+9.0 +8.6 97 +8 +8 по сезону 1009.3 990.3 +8.6 22
06 24.09 З 2-4
{4}
10 км {дождь} 10/10 200 м
[St]
+9.2 +8.6 96 +7 +7 по сезону 1010.3 991.3
09 24.09 З 1-3
{5}
10 км 4/4 300 м
[St]
+13.2 +8.8 75 +13 +18 тепло 1011.0 992.3
12 24.09 З 1-4
{5}
10 км 10/4 600 м
[Cb cap Ac trans Cs]
+13.2 +7.6 69 +13 +14 по сезону 1011.1 992.4
15 24.09 штиль 0
{5}
10 км 10/0
[Ac As Cs]
+11.1 +8.6 85 +10 +10 по сезону 1010.6 991.8 +14.2 0.0
18 24.09 ЮВ 1-2
{3}
10 км 10/0
[Ac As]
+11.0 +8.4 84 +11 +11 тепло 1009.2 990.4
21 24.09 Ю 2-4
{6}
10 км 10/0
[Ac As]
+11.3 +6.8 74 +10 +10 тепло 1007.5 988.7
00 25.09 ЮВ 2-6
{7}
10 км 10/0
[Ac As]
+11.3 +6.8 74 +10 +10 тепло 1003.8 985.1
03 25.09 ЮВ 2-7
{11}
4000 м слабый дождь {ливн. осадки} 10/8 300 м
[Frnb Ac As]
+10.2 +8.1 87 +9 +9 по сезону 1001.3 982.5 +10.0 0.5
06 25.09 Ю 3-8
{9}
4000 м слабый дождь {ливн. осадки} 10/8 300 м
[Frnb Ac As]
+10.1 +9.3 95 +8 +8 по сезону 999.6 980.9 +9.5
09 25.09 Ю 2-6
{8}
10 км слабый дождь 10/9 300 м
[Frnb Ac As]
+10.3 +10.0 98 +9 +9 по сезону 998.9 980.9
12 25.09 ЮЗ 2-8
{10}
10 км {дождь} 10/8 600 м
[Sc Ac As]
+10.4 +6.8 78 +9 +9 прохладно 1000.8 982.2
15 25.09 Ю 2-7
{11}
10 км 10/10 600 м
[Sc]
+9.1 +4.6 73 +8 +8 по сезону 1002.7 983.8 +11.5 7
18 25.09 ЮЗ 1-5
{8}
10 км 9/5 1000 м
[Sc Ac trans]
+8.7 +6.4 85 +8 +8 по сезону 1004.1 985.2
21 25.09 З 2-5
{7}
10 км 10/6 300 м
[St Ac As]
+8.6 +7.3 92 +7 +7 по сезону 1005.8 986.9
00 26.09 З 2-7
{8}
10 км слабая морось 10/8 300 м
[St Ac As]
+7.6 +6.5 93 +5 +5 по сезону 1008.4 989.3
03 26.09 З 2-7
{9}
4000 м слабая морось 10/8 300 м
[St Ac As]
+6.6 +5.7 94 +4 +4 по сезону 1012.3 993.1 +6.6 0.7

 

Местоположение метеостанции Нижний Новгород (Нижегородская область, Россия): широта 56.27 долгота 44.00 высота над уровнем моря 157 м.

В архиве по умолчанию представлена погода в Нижнем Новгороде за последнюю неделю. Архивные данные за месяц целиком и за предыдущие месяцы, начиная с января 2011 года, Вы можете получить, выбрав интересующий диапазон дат из раскрывающегося списка и нажав кнопку "Ввод!".


*Определитесь, кто Вы:
робот инопланетянин человек

Внимание! Время в таблицах - всемирное. Для получения местного времени необходимо прибавить поправку, которая в Нижнем Новгороде равна 3 ч.

Смотрите также архив погоды в соседних городах и на ближайших метеорологических станциях:

Погода в Нижнем Новгороде аэропорт (Нижегородская область, Россия) (15 км)
Погода в Дальнем Константиново (Нижегородская область, Россия) (53 км)
Погода в Балахне (Нижегородская область, Россия) (54 км)
Погода в Волжской ГМО (Нижегородская область, Россия) (57 км)
Погода в Семенове (Нижегородская область, Россия) (60 км)
Погода в Павлово (Нижегородская область, Россия) (70 км)
Погода в Лысково (Нижегородская область, Россия) (70 км)
Погода в Арзамасе (Нижегородская область, Россия) (101 км)
Погода в Воскресенском (Нижегородская область, Россия) (106 км)
Погода в Вязниках (Владимирская область, Россия) (113 км)

Пояснения к столбцам:

Ветер - указаны скорость ветра в м/с - средняя за 10 мин, порывы в срок и между сроками (в фигурных скобках) и направление, откуда дует ветер: С - северный, СВ - северо-восточный, В - восточный, ЮВ - юго-восточный, Ю - южный, ЮЗ - юго-западный, З - западный, СЗ - северо-западный.
Видимость - горизонтальная дальность видимости в метрах или километрах. При видимости от 1 до 10 км при отсутствии осадков обычно наблюдается дымка, при ухудшении видимости до 1 км и менее - туман. В сухую погоду видимость может ухудшаться дымом, пылью или мглою.
Явления - указаны атмосферные явления, наблюдавшиеся в срок или в последний час перед сроком; фигурными скобками обозначены явления, наблюдавшиеся между сроками (за 1-3 часа до срока); квадратными скобками обозначены град или гололедные отложения с указанием их диаметра в мм.
Облачность - указаны через наклонную черту общая и нижняя облачность в баллах и высота нижней границы облаков в метрах; квадратными скобками обозначены формы облаков: Ci - перистые, Cs - перисто-слоистые, Cc - перисто-кучевые, Ac - высококучевые, As - высокослоистые, Sc - слоисто-кучевые, Ns - слоисто-дождевые, Cu - кучевые, Cb - кучево-дождевые. Подробнее классификацию облаков см. в Атласе облаков (PDF).
T - Температура воздуха - температура, измеренная на высоте 2 м над землей.
Td - Температура точки росы - температура, при понижении до которой содержащийся в воздухе водяной пар достигнет насыщения.
f - Относительная влажность воздуха - влажноcть воздуха, измеренная на высоте 2 м над землей.
Te - Эффективная температура - температура, которую ощущает одетый по сезону человек в тени. Характеристика душности погоды. При расчете учитывается влияние влажности воздуха и скорости ветра на теплоощущения человека.
Tes - Эффективная температура на солнце - температура, которую ощущает человек, с поправкой на солнечный нагрев. Характеристика знойности погоды. Зависит от высоты солнца над горизонтом, облачности и скорости ветра. Ночью, в пасмурную погоду, а также при ветре 12 м/с и более поправка равна нулю.
P - Атмосферное давление - приведенное к уровню моря атмосферное давление.
Po - Атмосферное давление - измеренное на уровне метеостанции атмосферное давление.
Tmin - Минимальная температура - минимум температуры воздуха на высоте 2 м над землей.
Tmax - Максимальная температура - максимум температуры воздуха на высоте 2 м над землей.
R - Количество осадков - Количество выпавших осадков за период времени, мм. При наведении курсора мыши на число - период времени, за который выпало указанное количество осадков.
R24 - Количество осадков - Количество выпавших осадков за 24 часа, мм.
S - Снежный покров - Высота снежного покрова, см. При наведении курсора мыши на число - состояние снежного покрова и степень покрытия местности в баллах.